User: anonymous   Login
Location: Vancouver
(49.2500°N, 123.1330°W)
Time: 16:51:56
(UTC-07:00)
Language:

BREEZE-M DEB (TANK) - Orbit

View from above orbital plane
View from above orbital plane
View from above satellite
View from above satellite

Ground track
Ground track

The orbit data is extracted from the following two-line orbital elements,

1 27821U 03024B   14296.50165044  .00007334  00000-0  91643-3 0  5153
2 27821 049.5865 053.5308 5004320 020.4610 019.4362 05.63602590225202
Epoch (UTC): 23 October 2014 12:02:22
Eccentricity: 0.5004320
inclination: 49.5865°
perigee height: 285 km
apogee height: 13634 km
right ascension of ascending node: 53.5308°
argument of perigee: 20.4610°
revolutions per day: 5.63602590
mean anomaly at epoch: 19.4362°
orbit number at epoch: 22520

The dashed part of the orbit path shows where the satellite is in the earth's shadow,  

DLR